{"data":{"norad_id":55397,"intl_designator":"2023-014G","name":"STARLINK-5224","alt_names":[],"object_type":"PAYLOAD","status":"ACTIVE","operator":null,"country":"US","launch_date":"2023-01-31","launch_site_code":"AFWTR","launch_vehicle":null,"mission":null,"orbit_class":"UNKNOWN","rcs_meters":null,"size_class":null,"mass_kg":null,"dimensions":null,"purposes":["comms"],"wikipedia_slug":null,"has_3d_model":false,"image_url":null,"decayed_at":null,"tle_current":{"epoch":"2026-09-20T22:00:03.000096Z","epoch_age_seconds":60607,"freshness":"FRESH","line1":"1 55397U 23014G   26263.91670139  .00110207  00000+0  69632-2 0  9992","line2":"2 55397  69.9995 272.2430 0004458 263.9432   0.9606 15.08425999  5714","mean_motion":15.08425999,"eccentricity":0.0004458,"inclination_deg":69.9995,"raan_deg":272.243,"arg_perigee_deg":263.9432,"mean_anomaly_deg":0.9606,"bstar":0.0069632,"rev_number":571,"period_min":95.463748367811,"perigee_km":537.92455847616,"apogee_km":544.09366915124,"semimajor_km":6919.1461138137,"source":"CELESTRAK","updated_at":"2026-09-21T09:00:33.214186Z"}}}